Regional Weather Roundup
Issued by NWS

Home | Current Version | Previous Version | Text Only | Print | Product List | Glossary On
Versions: 1 2 3 4 5 6 7 8 9 10 11 12 13 14 15 16 17 18 19 20 21 22 23 24 25 26 27 28 29 30 31 32 33 34 35 36 37 38 39 40 41 42 43 44 45 46 47 48 49 50
000
ASUS44 KLUB 222310
RWRTX
WEST TEXAS WEATHER ROUNDUP
NATIONAL WEATHER SERVICE LUBBOCK TX
600 PM CDT FRI MAY 22 2015

NOTE: "FAIR" INDICATES FEW OR NO CLOUDS BELOW 12,000 FEET WITH NO
SIGNIFICANT WEATHER AND/OR OBSTRUCTIONS TO VISIBILITY.

TXZ004-006>008-010-012-014-016-OKZ002-230000-
TEXAS PANHANDLE/OKLAHOMA PANHANDLE

CITY           SKY/WX    TMP DP  RH WIND       PRES   REMARKS
AMARILLO       CLOUDY    65  57  75 S17       30.05F
BORGER         PTSUNNY   66  55  67 S14G21    30.04F
CANADIAN       CLOUDY    61  58  90 S9        30.07F
DALHART        MOSUNNY   69  53  56 S17       30.02F
DUMAS          PTSUNNY   66  53  61 S17G24    30.03F
GUYMON         MOSUNNY   68  55  63 S13       30.00F
HEREFORD       MOSUNNY   69  57  67 MISG      30.05F
PAMPA          CLOUDY    57  55  92 S14       30.08F
PERRYTON       CLOUDY    62  56  83 S17G23    30.05F
$$

TXZ026-029-035-045-048-230000-
SOUTHERN PANHANDLE/SOUTH PLAINS/ROLLING PLAINS

CITY           SKY/WX    TMP DP  RH WIND       PRES   REMARKS
CHILDRESS      CLOUDY    64  59  83 S8        30.08S
SEMINOLE       PTSUNNY   67  64  89 E6        30.04F
LUBBOCK        CLOUDY    63  59  87 SE9       30.06F
PLAINVIEW      CLOUDY    63  58  84 SE10      30.06S
SNYDER         CLOUDY    67  64  89 NE7       30.05F
$$

TXZ052-054-060>062-072-078-127-140-154-169-230000-
PERMIAN BASIN/CONCHO VALLEY/BIG COUNTRY/EDWARDS PLATEAU

CITY           SKY/WX    TMP DP  RH WIND       PRES   REMARKS
ABILENE        PTSUNNY   73  66  78 SE14      30.05F
BIG SPRING     SUNNY     79  64  59 E15       30.02F
BRADY          PTSUNNY   73  70  88 SE9       30.05F
BROWNWOOD      CLOUDY    73  66  78 SE13      30.07F
JUNCTION       MOSUNNY   79  68  69 SE15      30.03F
MIDLAND        MOSUNNY   80  63  55 SE10      29.98F
ODESSA         MOSUNNY   79  62  56 SE9       29.99F
SAN ANGELO     PTSUNNY   81  68  64 SE13      30.01F
SONORA         PTSUNNY   79  66  65 SE15      30.06F
SWEETWATER     CLOUDY    74  67  78 E6        30.07F
WINK           SUNNY     80  61  52 SE14      29.94F
$$

TXZ055-058-074-075-080-082-230000-
FAR WEST/SOUTHWEST MOUNTAINS/TRANS PECOS

CITY           SKY/WX    TMP DP  RH WIND       PRES   REMARKS
ALPINE         PTSUNNY   81  60  47 E10G16    30.03F
DRYDEN           N/A     77  65  66 SE12G17   29.98S
EL PASO        PTSUNNY   89  16   7 SW21      29.87F
FORT STOCKTON  MOSUNNY   81  63  54 E26G33    29.95S
GUADALUPE PASS SUNNY     70  57  63 E24       30.04
MARFA          SUNNY     88  36  15 SW16G24   30.02F
PECOS          SUNNY     79  63  59 E9G16     29.93F
PRESIDIO       FAIR      98  36  11 W7        29.82F
$$

TXZ014-016-019-021>030-083-230000
TEXAS TECH WEST TEXAS MESONET/TEXAS PANHANDLE/NORTHERN SOUTH PLAINS

CITY           SKY/WX    TMP DP  RH WIND       PRES   REMARKS
ABERNATHY 5ENE   N/A     62  57  85 SE9       30.08F
AMARILLO 9NNE    N/A     68  54  61 S14       30.03F
AMARILLO 7SSE    N/A     68  56  65 S15       30.06F
AMHERST 1NE      N/A     63  57  82 SE12      30.06S
BOOTLEG 11WNW    N/A     66  52  61 S16       30.06F
CANADIAN 6E      N/A     60  57  90 SE12      30.06F
CAPROCK CYN SP   N/A     63  58  85 SE9       30.07F
CHILDRESS 2NNE   N/A     63  58  84 SE8       30.08S
CLARENDON 2WSW   N/A     60  57  88 SE10      30.07F
CLAUDE 12SW      N/A     61  57  87 SE13      30.06F
DIMMITT 2NE      N/A     63  56  80 SE12      30.06F
FLOYDADA 2NNE    N/A     62  58  85 SE10      30.07F
FRIONA 2NE       N/A     66  55  69 SE16      30.05F
GOODLETT 3W      N/A     64  58  81 SE10      30.07S
HART 3N          N/A     62  56  81 SE10      30.06F
HEREFORD 2NW     N/A     65  52  63 S10       30.04F
MCLEAN 1E        N/A     57  56  95 SE8       30.07F
MEMPHIS 1NE      N/A     62  59  88 E7        30.07F
MULESHOE 2SSW    N/A     66  56  71 SE13      30.04F
OLTON 6S         N/A     63  56  78 SE12      30.06S
PALO DURO SP     N/A     64  57  79 SE12      30.06F
PAMPA 2E         N/A     56  56  98 SE13      30.07F
PLAINVIEW 1S     N/A     63  58  85 SE9       30.06F
SILVERTON 7ESE   N/A     61  57  86 E10       30.07F
TULIA 2ENE       N/A     64  58  82 SE10      30.06F
UMBARGER 3NNE    N/A     67  56  67 S14       30.05F
$$

TXZ033>036-039>041-045>048-230000
TEXAS TECH WEST TEXAS MESONET/SOUTH PLAINS

CITY           SKY/WX    TMP DP  RH WIND       PRES   REMARKS
AIKEN 3WSW       N/A     62  58  87 SE14      30.08S
ANDREWS 2NE      N/A     71  63  76 NE10      30.02F
ANTON 6SSW       N/A     62  59  88 SE12      30.06F
BROWNFIELD 2S    N/A     61  59  93 E8        30.06S
DENVR CTY 7WNW   N/A     64  58  81 E12       30.04F
GAIL 2ESE        N/A     66  63  89 E7        30.03F
LAMESA 2SE       N/A     64  62  94 NE8       30.04F
LEVELLAND 4S     N/A     63  58  83 SE8       30.06F
LUBBOCK 3WNW     N/A     62  57  83 SE9       30.06F
MORTON 1ENE      N/A     66  58  76 SE13      30.04F
ODONNELL 1N      N/A     62  60  93 E8        30.05F
PLAINS 3N        N/A     63  58  84 E13       30.05F
RALLS 1SE        N/A     62  59  91 SE8       30.08F
REESE CENTER     N/A     61  58  88 SE12      30.06F
SEAGRAVES 1SW    N/A     62  60  94 E7        30.04F
SEMINOLE 2NNE    N/A     65  61  87 E12       30.03F
SLATON 2NE       N/A     61  59  91 E8        30.07S
SNYDER 3E        N/A     68  65  89 NE9       30.04F
SUNDOWN 8SW      N/A     64  58  82 SE10      30.05F
TAHOKA 3NNE      N/A     62  60  92 E8        30.05F
WOLFFORTH 6SSW   N/A     62  61  98 E9        30.06F
$$

TXZ031-032-036>038-042>044-230000-
TEXAS TECH WEST TEXAS MESONET/ROLLING PLAINS

CITY           SKY/WX    TMP DP  RH WIND       PRES   REMARKS
ASPERMONT 3NE    N/A     64  63  95 E6        30.06F
FLUVANNA 3WNW    N/A     64  61  90 E10       30.05F
GRAHAM 5SSW      N/A     62  59  92 E8        30.05F
GUTHRIE 10WSW    N/A     62  60  90 E7        30.06F
HASKELL 1NW      N/A     64  63  95 E6        30.06F
JAYTON 1SSE      N/A     63  61  94 E7        30.06F
KNOX CITY 3NW    N/A     65  61  88 E7        30.07S
LK A HENRY 1NW   N/A     64  61  92 E10       30.05F
ODELL 4ENE       N/A     60  58  94 SE10      30.09F
PADUCAH 10SW     N/A     63  59  87 SE10      30.06F
POST 1NE         N/A     63  59  88 E8        30.06S
RRING SPRGS 3N   N/A     62  59  90 SE10      30.07F
SEYMOUR 3NW      N/A     63  61  91 E9        30.07F
SPUR 1W          N/A     62  58  89 E7        30.06F
WEINERT 2NNE     N/A     64  63  96 E9        30.07S
WHITE RVR 6NE    N/A     62  58  89 E7        30.06F
$$

TXZ052-054-060>062-072-078-127-140-154-169-230000-
TEXAS TECH WEST TEXAS MESONET/PERMIAN BASIN/
CONCHO VALLEY/BIG COUNTRY/EDWARDS PLATEAU

CITY           SKY/WX    TMP DP  RH WIND       PRES   REMARKS
COYANOSA 2N      N/A     83  66  56 E17       29.93F
JUNCTION 1SSW    N/A     79  68  69 SE8       30.03F
MERTZON 3NNE     N/A     78  67  69 SE8       30.02F
SAN ANGELO 7NW   N/A     79  65  60 SE13      30.01F
STRLNG CT 4WSW   N/A     78  66  68 E12       30.02F
ST LAWRNCE 5SW   N/A     77  66  67 SE17      30.00F
SWEETWATR 11SW   N/A     76  67  72 SE12      30.05F
WALL 1E          N/A     81  64  57 SE15      30.02F
$$

TXZ055-058-074-075-080-082-230000-
TEXAS TECH WEST TEXAS MESONET/FAR WEST/SOUTHWEST MOUNTAINS/TRANS PECOS

CITY           SKY/WX    TMP DP  RH WIND       PRES   REMARKS
PRSMN GAP BBNP   N/A     76  68  75 N22       29.93F
$$



USA.gov is the U.S. government's official web portal to all federal, state and local government web resources and services.